FLI401 EKVG-BIKF

Flight info

Callsign FLI401
Flight time 1h 17m
Altitude 38000
Route M077F380 MY2N MY DCT ING DCT NASBU NASBU4K
Aircraft A320/M-SDE3FGHIRWY/LB1

Departure

Time 2026-04-28 09:59
Airport Vágar Airport (EKVG)

Arrival

Time 2026-04-28 11:16
Airport Keflavik International Airport (BIKF)
Time Latitude Longitude Altitude Speed Heading
2026-04-28 09:30 62.06692 -7.27943 289 ft 0 kts 28°
2026-04-28 09:49 62.06688 -7.27947 291 ft 2 kts 28°
2026-04-28 09:49 62.06667 -7.27977 295 ft 4 kts 48°
2026-04-28 09:49 62.06655 -7.28024 295 ft 4 kts 89°
2026-04-28 09:50 62.06656 -7.28053 294 ft 1 kts 104°
2026-04-28 09:50 62.06656 -7.28056 294 ft 0 kts 104°
2026-04-28 09:53 62.06654 -7.28054 289 ft 1 kts 128°
2026-04-28 09:54 62.06641 -7.28067 292 ft 5 kts 201°
2026-04-28 09:54 62.06581 -7.28091 288 ft 12 kts 185°
2026-04-28 09:54 62.06491 -7.28153 289 ft 13 kts 195°
2026-04-28 09:54 62.06437 -7.28041 292 ft 13 kts 117°
2026-04-28 09:55 62.06395 -7.27863 296 ft 12 kts 117°
2026-04-28 09:55 62.06354 -7.27700 295 ft 14 kts 119°
2026-04-28 09:55 62.06300 -7.27489 291 ft 16 kts 118°
2026-04-28 09:55 62.06245 -7.27268 281 ft 16 kts 118°
2026-04-28 09:56 62.06190 -7.27045 275 ft 16 kts 117°
2026-04-28 09:56 62.06141 -7.26846 272 ft 16 kts 118°
2026-04-28 09:56 62.06080 -7.26604 265 ft 19 kts 118°
2026-04-28 09:56 62.06016 -7.26349 226 ft 22 kts 119°
2026-04-28 09:57 62.05962 -7.26127 245 ft 13 kts 115°
2026-04-28 09:57 62.05949 -7.26022 245 ft 1 kts 155°
2026-04-28 09:57 62.05947 -7.26067 244 ft 8 kts 283°
2026-04-28 09:57 62.05956 -7.26100 244 ft 0 kts 299°
2026-04-28 09:58 62.06035 -7.26426 257 ft 66 kts 297°
2026-04-28 09:59 62.06378 -7.27804 299 ft 141 kts 296°
2026-04-28 09:59 62.06904 -7.29912 795 ft 160 kts 294°
2026-04-28 09:59 62.07406 -7.31959 1972 ft 153 kts 287°
2026-04-28 09:59 62.07763 -7.34165 2552 ft 167 kts 282°
2026-04-28 10:00 62.08139 -7.36705 2813 ft 194 kts 282°
2026-04-28 10:00 62.08563 -7.39650 3088 ft 219 kts 283°
2026-04-28 10:00 62.09021 -7.42813 3897 ft 225 kts 283°
2026-04-28 10:00 62.09442 -7.46037 4818 ft 226 kts 277°
2026-04-28 10:01 62.09777 -7.49482 5360 ft 245 kts 277°
2026-04-28 10:01 62.10128 -7.53108 6137 ft 252 kts 278°
2026-04-28 10:01 62.10488 -7.56806 6976 ft 257 kts 279°
2026-04-28 10:01 62.11070 -7.60487 7752 ft 266 kts 292°
2026-04-28 10:02 62.11901 -7.64035 8610 ft 269 kts 293°
2026-04-28 10:02 62.12738 -7.67637 9463 ft 272 kts 293°
2026-04-28 10:02 62.13583 -7.71276 10296 ft 275 kts 293°
2026-04-28 10:02 62.14452 -7.75030 10774 ft 292 kts 293°
2026-04-28 10:03 62.15379 -7.79063 11051 ft 312 kts 293°
2026-04-28 10:03 62.16346 -7.83271 11671 ft 319 kts 293°
2026-04-28 10:03 62.17331 -7.87570 12401 ft 323 kts 293°
2026-04-28 10:03 62.18325 -7.91922 13142 ft 326 kts 293°
2026-04-28 10:04 62.19314 -7.96253 13883 ft 330 kts 293°
2026-04-28 10:04 62.20327 -8.00689 14552 ft 333 kts 292°
2026-04-28 10:04 62.21348 -8.05167 15208 ft 336 kts 292°
2026-04-28 10:04 62.22378 -8.09696 15861 ft 339 kts 292°
2026-04-28 10:05 62.23413 -8.14260 16516 ft 342 kts 292°
2026-04-28 10:05 62.24457 -8.18877 17152 ft 345 kts 292°
2026-04-28 10:05 62.25505 -8.23528 17782 ft 348 kts 292°
2026-04-28 10:05 62.26560 -8.28228 18419 ft 351 kts 292°
2026-04-28 10:06 62.27623 -8.32980 18990 ft 354 kts 292°
2026-04-28 10:06 62.28695 -8.37762 19521 ft 358 kts 292°
2026-04-28 10:06 62.29782 -8.42603 20051 ft 361 kts 292°
2026-04-28 10:06 62.30875 -8.47488 20582 ft 364 kts 292°
2026-04-28 10:07 62.31977 -8.52424 21118 ft 368 kts 292°
2026-04-28 10:07 62.33083 -8.57418 21640 ft 371 kts 292°
2026-04-28 10:07 62.34195 -8.62456 22176 ft 374 kts 292°
2026-04-28 10:07 62.35315 -8.67535 22698 ft 378 kts 292°
2026-04-28 10:08 62.36448 -8.72673 23221 ft 381 kts 292°
2026-04-28 10:08 62.37586 -8.77850 23743 ft 384 kts 292°
2026-04-28 10:08 62.38730 -8.83076 24182 ft 387 kts 292°
2026-04-28 10:08 62.39879 -8.88344 24615 ft 390 kts 292°
2026-04-28 10:09 62.41036 -8.93650 25058 ft 391 kts 292°
2026-04-28 10:09 62.42195 -8.98979 25494 ft 393 kts 292°
2026-04-28 10:09 62.43355 -9.04339 25905 ft 395 kts 292°
2026-04-28 10:09 62.44517 -9.09713 26307 ft 397 kts 292°
2026-04-28 10:10 62.45688 -9.15129 26717 ft 398 kts 292°
2026-04-28 10:10 62.46862 -9.20567 27108 ft 400 kts 292°
2026-04-28 10:10 62.48041 -9.26029 27491 ft 402 kts 292°
2026-04-28 10:10 62.49223 -9.31525 27870 ft 404 kts 292°
2026-04-28 10:11 62.50402 -9.37044 28250 ft 405 kts 292°
2026-04-28 10:11 62.51584 -9.42602 28625 ft 407 kts 292°
2026-04-28 10:11 62.52767 -9.48186 28982 ft 409 kts 292°
2026-04-28 10:11 62.53958 -9.53803 29338 ft 411 kts 292°
2026-04-28 10:12 62.55136 -9.59362 29682 ft 412 kts 292°
2026-04-28 10:12 62.56331 -9.65035 30016 ft 414 kts 292°
2026-04-28 10:12 62.57541 -9.70797 30345 ft 416 kts 291°
2026-04-28 10:12 62.58722 -9.76449 30612 ft 417 kts 291°
2026-04-28 10:13 62.59937 -9.82265 30894 ft 419 kts 291°
2026-04-28 10:13 62.61125 -9.87954 31151 ft 420 kts 291°
2026-04-28 10:13 62.62347 -9.93815 31402 ft 421 kts 291°
2026-04-28 10:13 62.63539 -9.99548 31639 ft 423 kts 291°
2026-04-28 10:14 62.64748 -10.05367 31968 ft 421 kts 291°
2026-04-28 10:14 62.65950 -10.11175 32330 ft 420 kts 291°
2026-04-28 10:14 62.67143 -10.16965 32673 ft 419 kts 291°
2026-04-28 10:14 62.68330 -10.22743 33012 ft 418 kts 291°
2026-04-28 10:15 62.69511 -10.28507 33355 ft 417 kts 291°
2026-04-28 10:15 62.70685 -10.34267 33694 ft 416 kts 291°
2026-04-28 10:15 62.71855 -10.40031 34036 ft 415 kts 290°
2026-04-28 10:15 62.73018 -10.45781 34353 ft 414 kts 290°
2026-04-28 10:16 62.74172 -10.51508 34646 ft 413 kts 290°
2026-04-28 10:16 62.75328 -10.57249 34913 ft 412 kts 290°
2026-04-28 10:16 62.76475 -10.62970 35162 ft 412 kts 290°
2026-04-28 10:16 62.77626 -10.68704 35375 ft 412 kts 290°
2026-04-28 10:17 62.78775 -10.74440 35627 ft 412 kts 290°
2026-04-28 10:17 62.79919 -10.80171 35867 ft 411 kts 290°
2026-04-28 10:17 62.81060 -10.85908 36074 ft 411 kts 290°
2026-04-28 10:17 62.82198 -10.91634 36290 ft 411 kts 290°
2026-04-28 10:18 62.83325 -10.97303 36513 ft 411 kts 290°
2026-04-28 10:18 62.84457 -11.03033 36725 ft 410 kts 290°
2026-04-28 10:18 62.85585 -11.08773 36920 ft 410 kts 290°
2026-04-28 10:18 62.86706 -11.14507 37114 ft 410 kts 290°
2026-04-28 10:19 62.87826 -11.20247 37312 ft 410 kts 290°
2026-04-28 10:19 62.88942 -11.25988 37509 ft 409 kts 290°
2026-04-28 10:19 62.90057 -11.31735 37688 ft 409 kts 290°
2026-04-28 10:19 62.91171 -11.37478 37863 ft 409 kts 290°
2026-04-28 10:20 62.92281 -11.43212 38049 ft 408 kts 290°
2026-04-28 10:20 62.93387 -11.48948 38215 ft 408 kts 290°
2026-04-28 10:20 62.95598 -11.60436 38239 ft 407 kts 289°
2026-04-28 10:21 62.97788 -11.71894 38237 ft 406 kts 289°
2026-04-28 10:21 62.99960 -11.83372 38235 ft 406 kts 289°
2026-04-28 10:22 63.02119 -11.94845 38233 ft 405 kts 289°
2026-04-28 10:22 63.04269 -12.06330 38229 ft 405 kts 289°
2026-04-28 10:23 63.06408 -12.17821 38234 ft 405 kts 289°
2026-04-28 10:23 63.08549 -12.29329 38230 ft 405 kts 289°
2026-04-28 10:24 63.10674 -12.40843 38235 ft 404 kts 289°
2026-04-28 10:24 63.12768 -12.52279 38225 ft 404 kts 288°
2026-04-28 10:25 63.14867 -12.63823 38228 ft 404 kts 288°
2026-04-28 10:25 63.16959 -12.75382 38215 ft 404 kts 288°
2026-04-28 10:26 63.19041 -12.86925 38210 ft 404 kts 288°
2026-04-28 10:26 63.21109 -12.98499 38204 ft 404 kts 288°
2026-04-28 10:27 63.22822 -13.08121 38208 ft 404 kts 288°
2026-04-28 10:27 63.24875 -13.19722 38204 ft 404 kts 288°
2026-04-28 10:28 63.26921 -13.31334 38201 ft 403 kts 287°
2026-04-28 10:29 63.29958 -13.48768 38199 ft 403 kts 287°
2026-04-28 10:29 63.31975 -13.60388 38193 ft 402 kts 287°
2026-04-28 10:30 63.33981 -13.72011 38190 ft 402 kts 287°
2026-04-28 10:30 63.35974 -13.83649 38184 ft 402 kts 287°
2026-04-28 10:31 63.37952 -13.95297 38183 ft 402 kts 287°
2026-04-28 10:31 63.39923 -14.06956 38173 ft 401 kts 286°
2026-04-28 10:32 63.41869 -14.18551 38171 ft 401 kts 286°
2026-04-28 10:32 63.43823 -14.30217 38164 ft 401 kts 286°
2026-04-28 10:33 63.45762 -14.41908 38163 ft 401 kts 285°
2026-04-28 10:33 63.47684 -14.53612 38166 ft 401 kts 285°
2026-04-28 10:34 63.49609 -14.65327 38153 ft 400 kts 285°
2026-04-28 10:34 63.51516 -14.77013 38157 ft 400 kts 285°
2026-04-28 10:35 63.53407 -14.88725 38155 ft 399 kts 285°
2026-04-28 10:35 63.55281 -15.00432 38134 ft 399 kts 285°
2026-04-28 10:36 63.57151 -15.12136 38133 ft 398 kts 285°
2026-04-28 10:36 63.59013 -15.23849 38128 ft 397 kts 284°
2026-04-28 10:37 63.60862 -15.35547 38123 ft 397 kts 284°
2026-04-28 10:37 63.62684 -15.47163 38119 ft 396 kts 284°
2026-04-28 10:38 63.64505 -15.58865 38113 ft 396 kts 284°
2026-04-28 10:38 63.66308 -15.70535 38116 ft 395 kts 284°
2026-04-28 10:39 63.68116 -15.82282 38115 ft 395 kts 283°
2026-04-28 10:39 63.69899 -15.94000 38111 ft 394 kts 283°
2026-04-28 10:40 63.71676 -16.05712 38108 ft 394 kts 283°
2026-04-28 10:40 63.73441 -16.17417 38104 ft 394 kts 283°
2026-04-28 10:41 63.75194 -16.29129 38102 ft 394 kts 283°
2026-04-28 10:41 63.76938 -16.40850 38101 ft 394 kts 283°
2026-04-28 10:42 63.78662 -16.52536 38098 ft 394 kts 283°
2026-04-28 10:42 63.80289 -16.64407 38100 ft 389 kts 276°
2026-04-28 10:43 63.80965 -16.76493 38097 ft 387 kts 272°
2026-04-28 10:43 63.81570 -16.88514 38091 ft 386 kts 272°
2026-04-28 10:44 63.82173 -17.00595 38086 ft 386 kts 272°
2026-04-28 10:44 63.82763 -17.12681 38080 ft 385 kts 272°
2026-04-28 10:45 63.83340 -17.24741 38077 ft 385 kts 272°
2026-04-28 10:45 63.83910 -17.36816 38070 ft 385 kts 271°
2026-04-28 10:46 63.84465 -17.48878 38071 ft 385 kts 271°
2026-04-28 10:46 63.85005 -17.60929 38066 ft 385 kts 271°
2026-04-28 10:47 63.85540 -17.73015 38057 ft 385 kts 271°
2026-04-28 10:47 63.86069 -17.85083 38052 ft 384 kts 271°
2026-04-28 10:48 63.86585 -17.97136 38045 ft 384 kts 271°
2026-04-28 10:48 63.86836 -18.03102 37873 ft 385 kts 271°
2026-04-28 10:48 63.87093 -18.09205 37584 ft 383 kts 271°
2026-04-28 10:48 63.87344 -18.15224 37316 ft 383 kts 270°
2026-04-28 10:49 63.87589 -18.21229 37041 ft 383 kts 270°
2026-04-28 10:49 63.87827 -18.27176 36776 ft 383 kts 270°
2026-04-28 10:49 63.88065 -18.33188 36512 ft 383 kts 270°
2026-04-28 10:49 63.88302 -18.39194 36252 ft 382 kts 270°
2026-04-28 10:50 63.88536 -18.45199 35988 ft 381 kts 270°
2026-04-28 10:50 63.88767 -18.51156 35733 ft 379 kts 270°
2026-04-28 10:50 63.88996 -18.57098 35479 ft 377 kts 269°
2026-04-28 10:50 63.89220 -18.63003 35224 ft 375 kts 269°
2026-04-28 10:51 63.89442 -18.68880 34970 ft 371 kts 269°
2026-04-28 10:51 63.89656 -18.74671 34559 ft 366 kts 269°
2026-04-28 10:51 63.89868 -18.80401 34115 ft 362 kts 268°
2026-04-28 10:51 63.90078 -18.86069 33642 ft 358 kts 268°
2026-04-28 10:52 63.90283 -18.91669 33207 ft 353 kts 268°
2026-04-28 10:52 63.90482 -18.97193 32784 ft 349 kts 268°
2026-04-28 10:52 63.90673 -19.02651 32366 ft 344 kts 268°
2026-04-28 10:52 63.90860 -19.08032 31954 ft 341 kts 268°
2026-04-28 10:53 63.91043 -19.13373 31547 ft 336 kts 268°
2026-04-28 10:53 63.91220 -19.18654 31153 ft 334 kts 268°
2026-04-28 10:53 63.91395 -19.23883 30756 ft 331 kts 268°
2026-04-28 10:53 63.91567 -19.29079 30367 ft 328 kts 268°
2026-04-28 10:54 63.91737 -19.34222 29994 ft 324 kts 268°
2026-04-28 10:54 63.91901 -19.39293 29585 ft 320 kts 268°
2026-04-28 10:54 63.92064 -19.44303 29227 ft 315 kts 268°
2026-04-28 10:54 63.92220 -19.49215 28880 ft 310 kts 267°
2026-04-28 10:55 63.92373 -19.54065 28535 ft 304 kts 267°
2026-04-28 10:55 63.92520 -19.58854 28201 ft 305 kts 267°
2026-04-28 10:55 63.92661 -19.63873 27855 ft 331 kts 267°
2026-04-28 10:55 63.92809 -19.69257 27472 ft 348 kts 268°
2026-04-28 10:56 63.92973 -19.74767 27069 ft 351 kts 268°
2026-04-28 10:56 63.93142 -19.80229 26676 ft 351 kts 268°
2026-04-28 10:56 63.93311 -19.85755 26267 ft 349 kts 268°
2026-04-28 10:56 63.93477 -19.91244 25857 ft 347 kts 268°
2026-04-28 10:57 63.93638 -19.96698 25486 ft 345 kts 268°
2026-04-28 10:57 63.93798 -20.02153 25197 ft 345 kts 268°
2026-04-28 10:57 63.93954 -20.07576 24781 ft 343 kts 267°
2026-04-28 10:57 63.94105 -20.12973 24347 ft 341 kts 267°
2026-04-28 10:58 63.94250 -20.18347 23914 ft 339 kts 267°
2026-04-28 10:58 63.94390 -20.23682 23485 ft 338 kts 267°
2026-04-28 10:58 63.94527 -20.29009 23001 ft 335 kts 267°
2026-04-28 10:58 63.94663 -20.34289 22559 ft 333 kts 266°
2026-04-28 10:59 63.94800 -20.39540 22100 ft 331 kts 267°
2026-04-28 10:59 63.94939 -20.44734 21652 ft 329 kts 267°
2026-04-28 10:59 63.95080 -20.49907 21207 ft 326 kts 267°
2026-04-28 10:59 63.95219 -20.55060 20766 ft 324 kts 267°
2026-04-28 11:00 63.95355 -20.60170 20334 ft 322 kts 267°
2026-04-28 11:00 63.95488 -20.65250 19898 ft 320 kts 267°
2026-04-28 11:00 63.95615 -20.70298 19467 ft 319 kts 266°
2026-04-28 11:00 63.95739 -20.75330 19036 ft 317 kts 266°
2026-04-28 11:01 63.95862 -20.80319 18608 ft 315 kts 266°
2026-04-28 11:01 63.95982 -20.85218 18195 ft 313 kts 266°
2026-04-28 11:01 63.96102 -20.90213 17747 ft 311 kts 266°
2026-04-28 11:01 63.96215 -20.95044 17328 ft 309 kts 266°
2026-04-28 11:02 63.96325 -20.99986 16912 ft 308 kts 266°
2026-04-28 11:02 63.96428 -21.04851 16510 ft 315 kts 266°
2026-04-28 11:02 63.96534 -21.09834 16093 ft 315 kts 266°
2026-04-28 11:02 63.96643 -21.14808 15636 ft 314 kts 266°
2026-04-28 11:03 63.96756 -21.19752 15169 ft 312 kts 266°
2026-04-28 11:03 63.96867 -21.24672 14702 ft 310 kts 266°
2026-04-28 11:03 63.96972 -21.29573 14235 ft 309 kts 266°
2026-04-28 11:03 63.97070 -21.34462 13773 ft 308 kts 266°
2026-04-28 11:04 63.97165 -21.39324 13265 ft 307 kts 266°
2026-04-28 11:04 63.97270 -21.44164 12784 ft 306 kts 269°
2026-04-28 11:04 63.97716 -21.48955 12302 ft 313 kts 282°
2026-04-28 11:04 63.98599 -21.53529 11806 ft 315 kts 287°
2026-04-28 11:05 63.99523 -21.58040 11315 ft 313 kts 287°
2026-04-28 11:05 64.00433 -21.62513 10815 ft 311 kts 287°
2026-04-28 11:05 64.01324 -21.66869 10582 ft 290 kts 286°
2026-04-28 11:05 64.02160 -21.70922 10178 ft 276 kts 286°
2026-04-28 11:06 64.02963 -21.74895 9835 ft 273 kts 285°
2026-04-28 11:06 64.03742 -21.78801 9724 ft 271 kts 285°
2026-04-28 11:06 64.04520 -21.82718 9553 ft 271 kts 285°
2026-04-28 11:06 64.05296 -21.86638 9142 ft 271 kts 285°
2026-04-28 11:07 64.06069 -21.90552 8707 ft 271 kts 285°
2026-04-28 11:07 64.06844 -21.94480 8305 ft 272 kts 285°
2026-04-28 11:07 64.07624 -21.98422 7880 ft 272 kts 286°
2026-04-28 11:07 64.08404 -22.02361 7464 ft 272 kts 286°
2026-04-28 11:08 64.09184 -22.06303 7046 ft 273 kts 286°
2026-04-28 11:08 64.09967 -22.10257 6618 ft 273 kts 286°
2026-04-28 11:08 64.10752 -22.14231 6139 ft 276 kts 287°
2026-04-28 11:08 64.11541 -22.18255 5616 ft 277 kts 287°
2026-04-28 11:09 64.12320 -22.22211 5103 ft 269 kts 287°
2026-04-28 11:09 64.13078 -22.26058 4604 ft 261 kts 288°
2026-04-28 11:09 64.13814 -22.29813 4073 ft 255 kts 288°
2026-04-28 11:09 64.14528 -22.33485 3627 ft 248 kts 288°
2026-04-28 11:10 64.15210 -22.36975 3379 ft 233 kts 288°
2026-04-28 11:10 64.15852 -22.40242 3225 ft 216 kts 288°
2026-04-28 11:10 64.16449 -22.43289 3123 ft 204 kts 287°
2026-04-28 11:10 64.16872 -22.46278 2985 ft 189 kts 261°
2026-04-28 11:11 64.16391 -22.48762 2860 ft 167 kts 216°
2026-04-28 11:11 64.15790 -22.49854 2831 ft 168 kts 214°
2026-04-28 11:11 64.14967 -22.51785 2775 ft 170 kts 222°
2026-04-28 11:11 64.14201 -22.53828 2721 ft 164 kts 223°
2026-04-28 11:12 64.13491 -22.55756 2658 ft 154 kts 223°
2026-04-28 11:12 64.12804 -22.57597 2603 ft 150 kts 222°
2026-04-28 11:12 64.12111 -22.59355 2553 ft 146 kts 214°
2026-04-28 11:12 64.11239 -22.60403 2476 ft 141 kts 190°
2026-04-28 11:13 64.10268 -22.60536 2346 ft 140 kts 180°
2026-04-28 11:13 64.09301 -22.60536 2163 ft 139 kts 179°
2026-04-28 11:13 64.08335 -22.60537 1978 ft 139 kts 180°
2026-04-28 11:13 64.07365 -22.60537 1785 ft 139 kts 180°
2026-04-28 11:14 64.06421 -22.60538 1613 ft 128 kts 179°
2026-04-28 11:14 64.05546 -22.60539 1434 ft 124 kts 180°
2026-04-28 11:14 64.04688 -22.60540 1265 ft 123 kts 180°
2026-04-28 11:14 64.03834 -22.60540 1088 ft 122 kts 180°
2026-04-28 11:15 64.02987 -22.60541 920 ft 121 kts 179°
2026-04-28 11:15 64.02143 -22.60541 762 ft 121 kts 179°
2026-04-28 11:15 64.01300 -22.60540 614 ft 121 kts 178°
2026-04-28 11:15 64.00462 -22.60539 452 ft 120 kts 178°
2026-04-28 11:16 63.99628 -22.60543 297 ft 119 kts 178°
2026-04-28 11:16 63.98819 -22.60544 176 ft 111 kts 178°
2026-04-28 11:16 63.98241 -22.60540 173 ft 43 kts 180°
2026-04-28 11:16 63.98027 -22.60543 171 ft 27 kts 180°
2026-04-28 11:17 63.97852 -22.60545 172 ft 21 kts 180°
2026-04-28 11:17 63.97721 -22.60541 172 ft 19 kts 179°
2026-04-28 11:17 63.97592 -22.60541 174 ft 19 kts 179°
2026-04-28 11:17 63.97472 -22.60574 172 ft 15 kts 210°
2026-04-28 11:18 63.97445 -22.60785 168 ft 16 kts 281°
2026-04-28 11:18 63.97503 -22.60940 166 ft 12 kts 357°
2026-04-28 11:18 63.97572 -22.60941 167 ft 8 kts 359°
2026-04-28 11:18 63.97641 -22.60942 168 ft 14 kts 359°
2026-04-28 11:19 63.97748 -22.60940 169 ft 14 kts
2026-04-28 11:19 63.97833 -22.60940 170 ft 11 kts
2026-04-28 11:19 63.97904 -22.60940 169 ft 12 kts 360°
2026-04-28 11:19 63.98015 -22.60941 169 ft 19 kts 360°
2026-04-28 11:20 63.98144 -22.60940 166 ft 18 kts
2026-04-28 11:20 63.98272 -22.60938 165 ft 18 kts
2026-04-28 11:20 63.98387 -22.60937 166 ft 16 kts 360°
2026-04-28 11:20 63.98494 -22.60939 166 ft 17 kts 359°
2026-04-28 11:21 63.98619 -22.60939 164 ft 18 kts 359°
2026-04-28 11:21 63.98744 -22.60941 162 ft 18 kts 360°
2026-04-28 11:21 63.98862 -22.60939 164 ft 15 kts
2026-04-28 11:21 63.98955 -22.60937 167 ft 13 kts
2026-04-28 11:22 63.99061 -22.60938 165 ft 16 kts 359°
2026-04-28 11:22 63.99156 -22.60951 161 ft 12 kts 335°
2026-04-28 11:22 63.99174 -22.61147 156 ft 15 kts 270°
2026-04-28 11:22 63.99175 -22.61370 152 ft 13 kts 281°
2026-04-28 11:23 63.99241 -22.61431 148 ft 9 kts 355°
2026-04-28 11:23 63.99258 -22.61538 145 ft 8 kts 269°
2026-04-28 11:23 63.99258 -22.61615 142 ft 3 kts 269°
2026-04-28 11:23 63.99258 -22.61628 141 ft 0 kts 269°